SCP
0 0 0 0 0 0 0 0 0 0 0 0 0 0 0 0 0 0 0 0 0 0 0 0 0 0 0 0 0 0 0 0 0 0 0 0 0 0 0 0 0 0 0 0 0 0 0 0 0 0 0 0 0 0
0 0 0 0 0 0 0 0 0 0 0 0 0 0 0 0 0 0 0 0 0 0 0 0 0 0 0 0 0 0 0 0 0 0 0 0 0 0 0 0 0 0 0 0 0 0 0 0 0 0 0 0 0 0
0 0 0 0 0 0 0 0 0 0 0 0 0 0 0 0 0 0 0 0 0 0 0 0 0 0 0 0 0 0 0 0 0 0 0 0 0 0 0 0 0 0 0 0 0 0 0 0 0 0 0 0 0 0
0 0 0 0 0 0 0 0 0 0 0 0 0 0 0 0 0 0 0 0 0 0 0 0 0 0 0 0 0 0 0 0 0 0 0 0 0 0 0 0 0 0 0 0 0 0 0 0 0 0 0 0 0 0
0 0 0 0 0 0 0 0 0 0 0 0 0 0 0 0 0 0 0 0 0 0 0 0 0 0 0 0 0 0 0 0 0 0 0 0 0 0 0 0 0 0 0 0 0 0 0 0 0 0 0 0 0 0
0 0 0 0 0 0 -0 0 0 0 0 0 0 0 0 0 0 0 0 0 0 0 0 0 0 0 0 0 0 0 0 0 0 0 0 0 0 0 0 0 0 0 0 0 0 0 0 0 0 0 0 0 0 0
0 0 0 0 0 0 0 0 0 0 0 0 0 0 0 0 0 0 0 0 0 0 0 0 0 0 0 0 0 0 0 0 0 0 0 0 0 0 0 0 0 0 0 0 0 0 0 0 0 0 0 0 0 0
0 0 0 0 0 0 -0 0 0 0 0 0 0 0 0 0 0 0 0 0 0 0 0 0 0 0 0 0 0 0 0 0 0 0 0 0 0 0 0 0 0 0 0 0 0 0 0 0 0 0 0 0 0 0
0 0 0 0 0 0 0 0 0 0 0 0 0 0 0 0 0 0 0 0 0 0 0 0 0 0 0 0 0 0 0 0 0 0 0 0 0 0 0 0 0 0 0 0 0 0 0 0 0 0 0 0 0 0
0 0 0 0 0 0 0 0 0 0 0 0 0 0 0 0 0 0 0 0 0 0 0 0 0 0 0 0 0 0 0 0 0 0 0 0 0 0 0 0 0 0 0 0 0 0 0 0 0 0 0 0 0 0
-0 0 0 0 0 0 0 0 0 0 0 0 0 0 0 0 0 0 0 0 0 0 0 0 0 0 0 0 0 0 0 0 0 0 0 0 0 0 0 0 0 0 0 0 0 0 0 0 0 0 0 0 0 0
0 0 0 0 0 0 0 0 0 0 0 0 0 0 0 0 0 0 0 0 0 0 0 0 0 0 0 0 0 0 0 0 0 0 0 0 0 0 0 0 0 0 0 0 0 0 0 0 0 0 0 0 0 0
0 0 0 0 0 0 0 0 0 0 0 0 0 0 0 0 0 0 0 0 0 0 0 0 0 0 0 0 0 0 0 0 0 0 0 0 0 0 0 0 0 0 0 0 0 0 0 0 0 0 0 0 0 0
0 -0 0 0 0 0 0 0 0 0 0 0 0 0 0 0 0 0 0 0 0 0 0 0 0 0 0 0 0 0 0 0 0 0 0 0 0 0 0 0 0 0 0 0 0 0 0 0 0 0 0 0 0 0
0 -0 -0 0 0 -0 0 0 0 0 0 0 0 0 0 0 0 0 0 0 0 0 0 0 0 0 0 0 0 0 0 0 0 0 0 0 0 0 0 0 0 0 0 0 0 0 0 0 0 0 0 0 0 0
0 0 0 0 -0 0 0 0 0 0 0 0 0 0 0 0 0 0 0 0 0 0 0 0 0 0 0 0 0 0 0 0 0 0 0 0 0 0 0 0 0 0 0 0 0 0 0 0 0 0 0 0 0 0
-0 0 0 0 0 0 0 0 0 0 0 0 0 0 0 0 0 0 0 0 0 0 0 0 0 0 0 0 0 0 0 0 -0 -0 0 0 0 0 0 0 -0 0 0 0 0 0 0 0 0 0 0 0 0 0
0 0 -0 -0 -0 0 0 0 0 0 0 0 0 0 0 0 0 0 0 0 0 0 0 0 0 0 0 0 0 0 0 0 0 0 0 0 0 0 0 0 0 0 0 0 0 0 0 0 0 0 0 0 0 0
0 0 0 0 -0 -0 0 0 0 0 0 0 0 0 0 0 0 0 0 0 0 0 0 0 0 0 0 0 0 0 0 0 0 0 0 0 0 0 0 -0 -0 -0 0 0 0 0 0 0 0 0 0 0 0 0
0 -0 -0 -0 0 -0 0 0 0 0 0 0 0 0 0 0 0 0 0 0 0 0 0 0 0 0 0 0 0 0 0 0 0 0 0 0 -0 0 0 0 0 0 0 0 0 0 0 0 0 0 0 0 0 0
0 0 -0 0 0 0 -0 0 0 0 0 0 0 0 0 0 0 0 0 0 0 0 0 0 0 0 0 0 0 0 0 0 0 0 0 0 0 0 -0 -0 0 0 0 0 0 0 0 0 0 0 0 0 0 0
0 0 0 0 0 0 0 0 -0 -0 0 0 0 0 0 0 0 0 0 0 0 0 0 0 0 0 0 0 0 0 0 0 0 0 0 0 -0 -0 -0 0 0 0 0 0 0 0 0 0 0 0 0 0 0 0
0 0 0 0 0 0 0 0 0 -0 0 0 0 0 0 0 0 0 0 0 0 0 0 0 0 0 0 0 0 0 0 0 0 0 0 0 0 -0 -0 0 0 0 0 0 0 0 0 0 0 0 0 0 0 0
0 0 0 0 0 0 0 0 0 0 0 0 0 0 0 0 0 0 0 0 -0 0 0 0 0 0 0 0 0 0 0 0 0 0 0 0 0 0 0 0 0 0 0 0 0 0 0 0 0 0 0 0 0 0
0 0 0 0 0 0 0 0 0 0 0 0 0 0 0 0 0 -0 -0 -0 0 0 0 0 0 0 0 0 0 0 0 0 0 0 0 0 0 0 0 0 0 0 0 0 0 0 0 0 0 0 0 0 0 0
0 0 0 0 0 0 0 0 0 0 0 0 0 0 -0 0 0 0 0 0 0 0 0 0 0 0 0 0 0 0 0 0 0 0 0 0 0 0 0 0 0 0 0 0 0 0 0 0 0 0 0 0 0 0
-0 0 0 0 0 0 0 0 0 0 0 0 0 0 0 0 0 0 0 0 0 0 0 0 0 0 0 0 0 0 0 0 0 -0 0 -0 -0 -0 -0 0 0 0 0 0 0 0 0 0 0 0 0 0 0 0
0 0 0 0 0 0 0 0 0 0 0 0 0 0 0 0 0 0 0 0 0 0 0 0 0 0 0 0 0 -0 -0 -0 0 -0 -0 0 0 0 0 0 0 0 0 0 0 0 0 0 0 0 0 0 0 0
0 0 0 0 0 0 0 0 0 0 0 0 0 0 0 0 0 0 0 0 0 0 0 0 0 0 0 0 0 0 0 0 0 0 0 0 0 0 0 0 0 0 0 0 0 0 0 0 0 0 0 0 0 0
0 0 0 0 0 0 0 0 0 0 0 0 0 0 0 0 0 0 0 0 0 0 0 0 0 0 0 0 0 0 0 0 0 0 0 0 0 0 0 0 0 0 0 0 0 0 0 0 0 0 0 0 0 0
0 0 0 0 0 0 0 0 0 0 0 0 0 0 0 0 0 0 0 0 0 0 0 0 0 0 0 0 0 0 0 0 0 0 0 0 0 0 0 0 0 0 0 0 0 0 0 0 0 0 0 0 0 0
0 0 0 0 0 0 0 0 0 0 0 0 0 0 0 0 0 0 0 0 0 0 0 0 0 0 0 0 0 0 0 0 0 0 0 0 0 0 0 0 0 0 0 0 0 0 0 0 0 0 0 0 0 0
0 0 0 0 0 0 0 0 0 0 0 0 0 0 0 0 0 0 0 0 0 0 0 0 0 0 0 0 0 0 0 0 0 -0 0 0 0 0 0 0 0 0 0 0 0 0 0 0 0 0 0 0 0 0
Wind_Speed_500mb
33 29 25 23 24 23 23 22 27 28 30 30 34 35 30 31 40 30 24 31 52 20 18 36 30 17 17 22 8 12 11 6 3 8 8 6 5 8 6 10 12 15 15 10 7 11 23 21 18 19 8 6 9 30
35 31 30 29 29 29 30 28 26 23 27 27 32 33 35 32 35 40 37 16 33 21 12 38 42 37 35 42 37 31 1 7 15 5 2 6 5 2 4 11 2 9 9 12 17 11 5 48 4 29 14 14 17 30
39 37 31 28 25 32 35 34 35 30 28 29 28 29 37 34 35 40 40 33 33 9 8 22 32 51 45 34 32 23 14 11 10 9 9 4 3 6 9 9 6 8 7 6 4 4 3 24 27 24 20 19 21 26
43 38 31 28 26 33 40 39 38 38 33 31 31 32 32 37 37 41 42 42 31 8 4 10 34 42 45 50 34 33 21 28 16 12 6 5 4 11 4 0 5 4 20 10 8 3 4 23 53 36 37 29 25 28
43 38 33 29 26 35 34 34 37 34 35 38 36 36 34 37 39 40 36 40 44 19 3 5 12 27 51 54 52 38 19 29 15 7 4 6 7 8 1 2 7 14 11 14 13 24 15 12 44 56 39 32 30 41
43 40 36 29 27 33 36 34 34 35 37 40 45 42 38 38 39 43 20 47 48 30 7 5 7 15 38 40 49 51 40 22 18 15 6 10 11 10 7 8 9 28 27 27 7 13 38 28 28 50 47 36 41 48
38 42 35 33 30 36 40 41 42 38 37 34 40 47 44 42 50 42 11 11 55 42 10 3 4 9 21 28 22 30 44 31 19 11 11 7 12 19 5 9 7 31 40 39 35 19 16 26 17 33 54 50 51 57
26 31 32 32 38 39 46 46 47 46 36 36 34 45 45 43 49 44 25 25 54 30 16 5 2 5 23 13 10 21 19 28 23 13 9 8 10 7 9 35 41 44 26 36 37 29 24 27 34 41 48 51 59 63
28 29 37 40 44 37 38 45 49 50 46 39 33 38 35 48 28 55 46 24 40 16 14 9 10 9 25 13 11 18 19 8 20 10 11 19 9 12 20 30 40 52 58 43 39 40 38 27 40 43 52 60 67 71
33 38 36 28 23 28 30 34 41 48 50 46 38 28 19 19 39 57 37 34 25 18 11 7 17 9 25 21 14 12 11 7 9 9 21 9 14 39 60 73 64 56 58 55 43 36 40 38 47 57 62 69 76 79
27 22 25 18 13 22 23 33 42 45 51 54 23 16 18 64 37 21 12 11 10 6 14 12 30 8 21 11 9 15 7 7 8 9 13 12 16 37 88 92 90 69 52 61 59 60 65 66 60 66 70 77 82 84
18 18 9 6 12 13 21 36 49 57 39 41 25 31 52 15 10 10 8 6 7 11 9 10 12 26 14 10 4 7 9 8 9 16 10 9 15 65 71 84 88 75 64 59 60 61 66 71 73 71 73 80 83 77
27 19 7 6 13 19 25 36 54 59 47 38 23 17 14 5 7 12 12 4 6 7 15 12 6 15 10 10 1 3 8 10 7 10 10 11 46 58 63 67 72 76 83 87 79 75 70 74 77 73 71 74 78 79
13 18 22 7 15 19 26 31 30 43 39 12 11 5 6 6 6 7 10 10 16 24 43 39 12 7 10 9 6 7 2 2 6 7 11 6 16 27 34 54 60 67 77 83 86 90 86 84 83 73 71 68 76 78
9 13 23 31 24 35 34 29 28 59 21 8 7 8 6 4 8 17 21 23 21 34 43 14 9 10 7 6 7 7 5 6 11 23 13 23 28 29 29 34 49 55 59 76 84 87 87 85 81 71 66 66 67 72
1 12 32 24 9 20 32 32 30 14 10 8 14 4 11 1 3 8 9 12 14 26 22 9 8 6 8 7 9 11 14 9 5 5 6 24 26 25 25 32 41 46 52 56 67 78 81 83 83 76 69 67 68 74
21 20 25 18 25 31 33 26 9 12 11 9 6 21 8 7 7 6 7 6 10 21 6 6 10 15 6 4 6 7 9 7 1 8 23 27 32 33 32 32 34 33 34 36 42 51 65 70 70 68 70 69 70 70
27 32 29 21 27 23 23 13 13 14 13 15 6 4 13 17 6 9 7 3 4 4 6 6 8 8 10 15 6 4 2 10 15 17 17 29 34 34 34 30 27 29 32 35 33 39 52 62 66 70 66 69 70 68
20 24 27 15 8 6 9 12 12 10 11 8 10 12 10 10 22 19 10 1 1 1 2 2 5 7 6 5 5 8 9 15 16 30 36 29 31 33 34 32 24 20 26 29 30 36 45 55 60 62 66 67 68 67
11 15 20 21 8 8 12 13 12 13 5 6 7 8 9 9 11 15 18 9 7 4 8 6 5 5 8 9 16 21 25 24 29 37 26 17 30 30 28 29 24 19 15 20 23 29 39 46 51 55 58 57 59 57
3 8 12 11 11 20 16 10 14 11 8 9 7 7 8 10 12 18 20 19 13 11 5 8 10 13 14 16 15 17 18 19 19 21 33 42 33 30 24 19 14 11 15 21 23 35 39 40 45 48 48 48 46 45
5 1 5 14 12 13 18 18 11 8 7 8 8 9 10 6 11 15 16 20 10 8 9 13 17 18 15 14 14 14 14 16 18 20 22 22 19 17 14 8 8 14 20 27 35 40 44 44 46 47 47 48 46 44
12 6 12 17 11 15 8 10 7 10 6 4 3 4 4 4 8 9 10 8 7 15 19 18 17 14 13 15 17 16 11 10 11 10 10 9 7 3 3 5 9 13 20 26 28 33 41 45 44 41 40 39 39 38
15 15 21 18 27 4 7 13 10 8 9 7 5 5 5 8 14 7 5 6 10 16 17 16 15 9 6 9 14 14 12 9 6 4 2 4 3 5 7 10 15 18 20 28 32 35 37 38 37 36 34 33 31 29
14 25 19 16 23 14 14 10 11 9 7 6 5 6 5 11 3 6 5 9 17 17 18 15 12 12 11 9 12 15 15 9 7 7 9 10 10 13 14 15 17 18 22 24 29 31 33 33 32 31 29 26 23 20
18 22 14 7 12 9 5 7 8 5 4 6 5 9 8 4 5 5 5 16 13 15 17 16 15 10 11 12 10 10 13 10 11 11 12 11 10 10 11 14 17 20 22 20 20 22 24 25 23 21 19 18 17 18
12 9 14 18 9 5 7 7 2 5 8 7 6 9 4 6 6 4 9 12 12 13 11 11 12 10 9 10 10 11 12 10 9 11 11 9 9 11 11 12 11 14 15 16 17 17 15 15 15 16 17 17 17 17
10 17 6 19 9 12 7 5 7 6 5 8 4 10 5 2 3 12 9 19 15 11 10 12 11 11 9 8 8 8 10 10 9 8 7 7 7 7 8 8 8 11 11 11 11 12 12 13 14 14 13 15 17 20
10 23 10 9 6 12 10 4 2 5 10 5 3 2 4 4 15 15 16 15 12 10 8 7 7 8 8 7 7 6 6 6 6 4 3 3 3 2 3 4 5 6 7 8 9 9 10 11 12 14 15 17 21 25
14 23 8 6 7 6 7 10 10 13 10 7 3 2 5 10 18 21 20 18 15 13 12 11 10 9 7 6 5 4 2 1 2 3 3 2 1 3 5 5 5 5 6 7 8 10 12 14 16 18 20 22 26 31
19 16 5 8 6 6 11 15 8 8 6 7 7 6 5 6 11 31 33 25 20 18 15 13 11 10 8 7 7 6 6 4 2 2 2 1 2 3 5 7 8 9 10 11 13 15 18 22 25 29 31 32 33 37
22 14 7 7 5 12 12 19 8 6 9 7 8 11 9 6 5 15 37 34 26 22 18 16 14 12 9 8 6 5 5 4 3 4 5 7 8 10 11 13 14 16 19 21 23 25 27 29 32 35 37 39 40 42
11 12 10 8 8 9 19 20 15 8 9 11 14 15 14 8 6 24 30 38 31 25 21 18 15 12 11 9 9 9 10 10 10 11 13 14 15 17 19 20 22 24 26 27 29 32 34 36 38 40 42 45 46 48
Wind_Direction_500mb
217 218 226 233 240 244 242 239 226 232 233 232 221 215 217 219 220 225 230 223 209 210 217 210 208 170 164 186 158 152 117 152 146 203 172 163 182 198 157 158 178 163 160 184 158 205 247 152 138 187 188 156 170 190
214 216 223 230 235 242 241 243 240 232 225 228 233 219 216 215 213 223 234 230 215 217 231 216 217 218 225 206 186 179 251 154 175 117 114 119 143 173 133 191 268 195 193 168 199 209 35 178 169 200 186 181 183 184
216 217 220 231 242 240 239 239 241 238 232 224 225 231 223 214 210 221 222 201 200 207 242 231 225 223 225 226 219 188 214 187 181 138 139 115 159 157 177 225 124 252 195 197 152 159 217 210 217 208 213 221 210 196
215 217 220 230 243 245 237 234 234 232 236 229 226 226 224 218 208 217 216 224 218 167 198 244 227 227 224 223 222 223 222 185 163 159 102 128 191 199 230 15 233 182 153 167 265 216 301 249 223 224 217 225 210 198
216 215 220 231 248 239 237 236 224 230 233 230 230 224 224 222 207 214 220 216 201 184 178 268 234 221 220 219 222 225 212 210 168 147 143 182 137 162 136 253 231 192 176 190 224 180 202 220 223 217 218 218 211 196
220 212 219 229 244 240 239 242 235 227 231 231 223 223 220 213 203 197 190 216 224 215 170 219 257 224 215 217 220 220 213 207 189 176 179 209 184 181 171 212 254 217 217 221 277 247 222 241 242 225 215 213 210 200
227 215 215 231 247 238 235 237 235 229 232 235 227 216 215 210 203 191 192 184 195 194 179 209 242 210 197 196 198 201 207 210 212 200 192 172 199 185 168 222 242 226 233 232 243 250 235 231 230 212 215 212 202 195
224 222 224 243 252 251 248 239 234 233 226 224 215 204 212 205 203 193 146 156 172 166 177 221 158 183 168 157 165 182 175 192 212 209 178 181 150 183 225 242 229 242 258 239 236 233 240 243 223 209 206 198 188 184
220 228 242 253 258 250 247 236 229 222 213 210 204 196 201 205 188 188 183 171 173 171 170 179 166 196 179 175 146 169 173 190 188 192 203 166 172 208 223 234 219 223 225 234 229 226 226 232 217 205 198 192 193 186
225 238 239 244 245 248 239 218 207 203 200 192 187 188 192 207 183 169 162 176 186 200 217 203 169 179 180 173 171 154 177 210 202 194 141 207 222 229 237 241 245 237 225 222 200 210 217 222 215 206 207 210 206 200
245 192 163 191 227 227 214 203 195 183 179 182 185 181 163 149 135 163 156 166 144 179 183 203 192 135 187 182 173 203 176 189 220 182 196 191 221 230 237 240 243 240 233 228 234 245 249 244 231 218 214 212 209 205
101 92 125 195 191 187 199 190 182 175 178 179 180 142 171 147 134 151 150 123 166 196 168 157 172 196 164 169 169 177 202 181 235 147 194 200 231 230 229 232 239 237 230 229 233 234 236 241 245 237 226 221 215 209
88 66 47 223 190 177 172 174 179 170 169 167 185 191 158 126 134 163 152 144 155 155 154 148 132 158 145 190 92 209 222 203 102 185 222 226 235 238 238 242 245 243 238 239 235 232 234 239 243 238 231 227 218 209
62 33 36 117 139 153 167 175 169 171 172 167 174 171 178 147 160 168 150 155 166 155 161 163 138 165 156 163 170 230 277 150 235 206 222 247 276 284 262 252 250 245 239 236 237 236 233 233 236 236 231 226 215 210
187 360 5 126 126 160 158 168 170 168 155 148 173 174 195 98 86 152 148 140 159 169 160 129 117 139 159 175 184 116 170 246 236 242 280 295 314 295 284 261 253 250 252 243 236 235 231 230 230 229 225 216 213 211
185 17 58 96 148 157 179 180 156 114 86 74 38 112 20 336 48 59 68 101 132 155 155 137 130 146 215 168 163 195 170 210 241 214 294 325 332 330 301 277 268 267 257 252 248 242 236 228 225 223 216 211 207 206
58 49 39 87 101 124 135 149 113 74 86 59 36 45 47 56 50 70 54 96 128 156 169 135 160 199 122 151 210 193 196 225 170 256 306 314 321 325 320 312 302 286 277 268 257 251 239 228 221 213 208 202 199 200
53 45 46 96 117 109 98 63 71 58 61 45 94 29 64 46 53 60 40 62 127 183 169 186 139 173 184 173 218 199 3 296 295 303 318 328 326 323 319 316 303 292 281 275 256 237 227 219 214 208 202 197 193 192
55 37 40 71 125 86 78 56 51 88 57 60 64 54 70 69 50 41 25 128 137 122 334 215 193 196 202 42 347 337 343 342 310 308 316 314 313 316 321 321 316 301 280 256 235 225 215 209 207 201 195 191 192 191
51 32 19 35 69 76 78 56 60 88 96 94 68 51 65 54 39 36 39 62 96 59 37 23 36 35 336 321 314 306 313 313 313 319 324 337 336 328 321 309 300 287 255 231 214 201 198 194 191 192 191 190 190 190
31 29 18 26 65 61 80 63 63 72 91 90 70 53 54 46 41 30 16 23 56 38 48 16 353 346 338 333 329 323 318 309 306 301 302 312 323 322 324 315 292 247 209 196 185 181 180 187 186 183 183 182 180 183
168 65 51 47 70 70 70 49 77 76 68 81 51 45 42 34 20 9 1 47 53 22 0 342 344 344 347 344 340 334 317 302 303 305 304 304 311 314 310 281 229 204 189 176 171 174 169 175 177 174 175 177 176 178
135 110 60 38 82 51 44 42 65 34 78 18 85 88 46 46 10 4 69 54 47 1 352 344 346 337 343 355 352 350 337 313 311 311 311 316 308 266 250 194 178 184 177 162 163 166 166 165 166 170 172 174 176 178
92 55 31 37 29 36 18 31 38 48 56 27 27 86 21 331 348 63 72 12 357 359 4 5 2 11 7 8 16 25 32 40 54 51 75 105 128 144 149 153 155 156 160 155 153 160 160 160 164 169 173 174 175 179
74 12 21 5 18 26 27 14 360 36 52 341 29 32 8 339 57 49 26 352 351 359 5 13 21 32 33 36 36 33 34 46 69 93 118 122 130 129 135 142 144 148 149 158 160 161 159 160 163 168 173 175 180 184
65 13 36 340 360 46 338 44 26 10 5 34 15 315 332 318 63 39 355 333 335 339 348 1 12 29 30 36 37 41 43 65 86 108 112 108 107 117 127 135 138 138 146 153 156 159 159 160 164 171 179 186 194 208
51 343 15 26 5 20 59 52 56 60 47 26 335 340 338 67 36 1 327 344 335 326 334 351 2 7 13 26 35 36 40 51 73 91 92 93 108 120 121 121 119 139 146 153 156 158 163 170 179 191 201 211 222 234
71 28 47 341 21 27 112 52 40 25 310 346 308 24 69 56 323 328 320 331 338 339 343 350 357 4 11 23 34 37 51 70 83 85 84 89 102 101 114 124 115 150 155 161 166 174 183 195 207 219 232 244 254 260
34 353 353 8 32 47 47 83 268 4 338 335 106 332 293 343 342 340 346 350 356 1 1 2 4 7 9 14 16 24 37 46 48 56 53 57 85 105 127 136 145 147 164 181 192 204 217 228 238 247 258 265 268 273
0 2 14 35 66 24 11 6 350 347 6 357 320 356 20 44 34 32 29 27 26 21 18 18 17 15 18 20 28 29 41 75 68 77 73 84 194 196 201 204 207 210 215 224 235 244 255 262 264 269 273 277 279 280
353 350 12 43 96 37 0 1 7 18 20 20 27 346 325 326 43 36 30 26 27 28 27 24 23 21 21 26 20 19 19 5 351 319 297 301 266 258 251 247 245 246 250 256 265 274 279 282 282 283 285 288 290 290
360 27 17 36 5 358 8 2 17 24 21 17 10 7 357 6 55 28 19 21 19 15 14 12 10 10 13 16 15 4 349 334 311 283 272 270 273 278 282 283 281 279 279 281 283 282 282 283 283 286 289 292 294 294
347 2 12 359 3 14 357 354 18 18 23 22 20 16 22 32 51 14 7 6 8 8 5 359 350 341 337 334 328 322 320 314 307 301 298 292 289 287 285 283 283 282 282 282 283 286 288 291 293 295 294 295 296 296
Wind_Speed_850mb
33 29 25 23 24 23 23 22 27 28 30 30 34 35 30 31 40 30 24 31 52 20 18 36 30 17 17 22 8 12 11 6 3 8 8 6 5 8 6 10 12 15 15 10 7 11 23 21 18 19 8 6 9 30
35 31 30 29 29 29 30 28 26 23 27 27 32 33 35 32 35 40 37 16 33 21 12 38 42 37 35 42 37 31 1 7 15 5 2 6 5 2 4 11 2 9 9 12 17 11 5 48 4 29 14 14 17 30
39 37 31 28 25 32 35 34 35 30 28 29 28 29 37 34 35 40 40 33 33 9 8 22 32 51 45 34 32 23 14 11 10 9 9 4 3 6 9 9 6 8 7 6 4 4 3 24 27 24 20 19 21 26
43 38 31 28 26 33 40 39 38 38 33 31 31 32 32 37 37 41 42 42 31 8 4 10 34 42 45 50 34 33 21 28 16 12 6 5 4 11 4 0 5 4 20 10 8 3 4 23 53 36 37 29 25 28
43 38 33 29 26 35 34 34 37 34 35 38 36 36 34 37 39 40 36 40 44 19 3 5 12 27 51 54 52 38 19 29 15 7 4 6 7 8 1 2 7 14 11 14 13 24 15 12 44 56 39 32 30 41
43 40 36 29 27 33 36 34 34 35 37 40 45 42 38 38 39 43 20 47 48 30 7 5 7 15 38 40 49 51 40 22 18 15 6 10 11 10 7 8 9 28 27 27 7 13 38 28 28 50 47 36 41 48
38 42 35 33 30 36 40 41 42 38 37 34 40 47 44 42 50 42 11 11 55 42 10 3 4 9 21 28 22 30 44 31 19 11 11 7 12 19 5 9 7 31 40 39 35 19 16 26 17 33 54 50 51 57
26 31 32 32 38 39 46 46 47 46 36 36 34 45 45 43 49 44 25 25 54 30 16 5 2 5 23 13 10 21 19 28 23 13 9 8 10 7 9 35 41 44 26 36 37 29 24 27 34 41 48 51 59 63
28 29 37 40 44 37 38 45 49 50 46 39 33 38 35 48 28 55 46 24 40 16 14 9 10 9 25 13 11 18 19 8 20 10 11 19 9 12 20 30 40 52 58 43 39 40 38 27 40 43 52 60 67 71
33 38 36 28 23 28 30 34 41 48 50 46 38 28 19 19 39 57 37 34 25 18 11 7 17 9 25 21 14 12 11 7 9 9 21 9 14 39 60 73 64 56 58 55 43 36 40 38 47 57 62 69 76 79
27 22 25 18 13 22 23 33 42 45 51 54 23 16 18 64 37 21 12 11 10 6 14 12 30 8 21 11 9 15 7 7 8 9 13 12 16 37 88 92 90 69 52 61 59 60 65 66 60 66 70 77 82 84
18 18 9 6 12 13 21 36 49 57 39 41 25 31 52 15 10 10 8 6 7 11 9 10 12 26 14 10 4 7 9 8 9 16 10 9 15 65 71 84 88 75 64 59 60 61 66 71 73 71 73 80 83 77
27 19 7 6 13 19 25 36 54 59 47 38 23 17 14 5 7 12 12 4 6 7 15 12 6 15 10 10 1 3 8 10 7 10 10 11 46 58 63 67 72 76 83 87 79 75 70 74 77 73 71 74 78 79
13 18 22 7 15 19 26 31 30 43 39 12 11 5 6 6 6 7 10 10 16 24 43 39 12 7 10 9 6 7 2 2 6 7 11 6 16 27 34 54 60 67 77 83 86 90 86 84 83 73 71 68 76 78
9 13 23 31 24 35 34 29 28 59 21 8 7 8 6 4 8 17 21 23 21 34 43 14 9 10 7 6 7 7 5 6 11 23 13 23 28 29 29 34 49 55 59 76 84 87 87 85 81 71 66 66 67 72
1 12 32 24 9 20 32 32 30 14 10 8 14 4 11 1 3 8 9 12 14 26 22 9 8 6 8 7 9 11 14 9 5 5 6 24 26 25 25 32 41 46 52 56 67 78 81 83 83 76 69 67 68 74
21 20 25 18 25 31 33 26 9 12 11 9 6 21 8 7 7 6 7 6 10 21 6 6 10 15 6 4 6 7 9 7 1 8 23 27 32 33 32 32 34 33 34 36 42 51 65 70 70 68 70 69 70 70
27 32 29 21 27 23 23 13 13 14 13 15 6 4 13 17 6 9 7 3 4 4 6 6 8 8 10 15 6 4 2 10 15 17 17 29 34 34 34 30 27 29 32 35 33 39 52 62 66 70 66 69 70 68
20 24 27 15 8 6 9 12 12 10 11 8 10 12 10 10 22 19 10 1 1 1 2 2 5 7 6 5 5 8 9 15 16 30 36 29 31 33 34 32 24 20 26 29 30 36 45 55 60 62 66 67 68 67
11 15 20 21 8 8 12 13 12 13 5 6 7 8 9 9 11 15 18 9 7 4 8 6 5 5 8 9 16 21 25 24 29 37 26 17 30 30 28 29 24 19 15 20 23 29 39 46 51 55 58 57 59 57
3 8 12 11 11 20 16 10 14 11 8 9 7 7 8 10 12 18 20 19 13 11 5 8 10 13 14 16 15 17 18 19 19 21 33 42 33 30 24 19 14 11 15 21 23 35 39 40 45 48 48 48 46 45
5 1 5 14 12 13 18 18 11 8 7 8 8 9 10 6 11 15 16 20 10 8 9 13 17 18 15 14 14 14 14 16 18 20 22 22 19 17 14 8 8 14 20 27 35 40 44 44 46 47 47 48 46 44
12 6 12 17 11 15 8 10 7 10 6 4 3 4 4 4 8 9 10 8 7 15 19 18 17 14 13 15 17 16 11 10 11 10 10 9 7 3 3 5 9 13 20 26 28 33 41 45 44 41 40 39 39 38
15 15 21 18 27 4 7 13 10 8 9 7 5 5 5 8 14 7 5 6 10 16 17 16 15 9 6 9 14 14 12 9 6 4 2 4 3 5 7 10 15 18 20 28 32 35 37 38 37 36 34 33 31 29
14 25 19 16 23 14 14 10 11 9 7 6 5 6 5 11 3 6 5 9 17 17 18 15 12 12 11 9 12 15 15 9 7 7 9 10 10 13 14 15 17 18 22 24 29 31 33 33 32 31 29 26 23 20
18 22 14 7 12 9 5 7 8 5 4 6 5 9 8 4 5 5 5 16 13 15 17 16 15 10 11 12 10 10 13 10 11 11 12 11 10 10 11 14 17 20 22 20 20 22 24 25 23 21 19 18 17 18
12 9 14 18 9 5 7 7 2 5 8 7 6 9 4 6 6 4 9 12 12 13 11 11 12 10 9 10 10 11 12 10 9 11 11 9 9 11 11 12 11 14 15 16 17 17 15 15 15 16 17 17 17 17
10 17 6 19 9 12 7 5 7 6 5 8 4 10 5 2 3 12 9 19 15 11 10 12 11 11 9 8 8 8 10 10 9 8 7 7 7 7 8 8 8 11 11 11 11 12 12 13 14 14 13 15 17 20
10 23 10 9 6 12 10 4 2 5 10 5 3 2 4 4 15 15 16 15 12 10 8 7 7 8 8 7 7 6 6 6 6 4 3 3 3 2 3 4 5 6 7 8 9 9 10 11 12 14 15 17 21 25
14 23 8 6 7 6 7 10 10 13 10 7 3 2 5 10 18 21 20 18 15 13 12 11 10 9 7 6 5 4 2 1 2 3 3 2 1 3 5 5 5 5 6 7 8 10 12 14 16 18 20 22 26 31
19 16 5 8 6 6 11 15 8 8 6 7 7 6 5 6 11 31 33 25 20 18 15 13 11 10 8 7 7 6 6 4 2 2 2 1 2 3 5 7 8 9 10 11 13 15 18 22 25 29 31 32 33 37
22 14 7 7 5 12 12 19 8 6 9 7 8 11 9 6 5 15 37 34 26 22 18 16 14 12 9 8 6 5 5 4 3 4 5 7 8 10 11 13 14 16 19 21 23 25 27 29 32 35 37 39 40 42
11 12 10 8 8 9 19 20 15 8 9 11 14 15 14 8 6 24 30 38 31 25 21 18 15 12 11 9 9 9 10 10 10 11 13 14 15 17 19 20 22 24 26 27 29 32 34 36 38 40 42 45 46 48
Wind_Direction_850mb
217 218 226 233 240 244 242 239 226 232 233 232 221 215 217 219 220 225 230 223 209 210 217 210 208 170 164 186 158 152 117 152 146 203 172 163 182 198 157 158 178 163 160 184 158 205 247 152 138 187 188 156 170 190
214 216 223 230 235 242 241 243 240 232 225 228 233 219 216 215 213 223 234 230 215 217 231 216 217 218 225 206 186 179 251 154 175 117 114 119 143 173 133 191 268 195 193 168 199 209 35 178 169 200 186 181 183 184
216 217 220 231 242 240 239 239 241 238 232 224 225 231 223 214 210 221 222 201 200 207 242 231 225 223 225 226 219 188 214 187 181 138 139 115 159 157 177 225 124 252 195 197 152 159 217 210 217 208 213 221 210 196
215 217 220 230 243 245 237 234 234 232 236 229 226 226 224 218 208 217 216 224 218 167 198 244 227 227 224 223 222 223 222 185 163 159 102 128 191 199 230 15 233 182 153 167 265 216 301 249 223 224 217 225 210 198
216 215 220 231 248 239 237 236 224 230 233 230 230 224 224 222 207 214 220 216 201 184 178 268 234 221 220 219 222 225 212 210 168 147 143 182 137 162 136 253 231 192 176 190 224 180 202 220 223 217 218 218 211 196
220 212 219 229 244 240 239 242 235 227 231 231 223 223 220 213 203 197 190 216 224 215 170 219 257 224 215 217 220 220 213 207 189 176 179 209 184 181 171 212 254 217 217 221 277 247 222 241 242 225 215 213 210 200
227 215 215 231 247 238 235 237 235 229 232 235 227 216 215 210 203 191 192 184 195 194 179 209 242 210 197 196 198 201 207 210 212 200 192 172 199 185 168 222 242 226 233 232 243 250 235 231 230 212 215 212 202 195
224 222 224 243 252 251 248 239 234 233 226 224 215 204 212 205 203 193 146 156 172 166 177 221 158 183 168 157 165 182 175 192 212 209 178 181 150 183 225 242 229 242 258 239 236 233 240 243 223 209 206 198 188 184
220 228 242 253 258 250 247 236 229 222 213 210 204 196 201 205 188 188 183 171 173 171 170 179 166 196 179 175 146 169 173 190 188 192 203 166 172 208 223 234 219 223 225 234 229 226 226 232 217 205 198 192 193 186
225 238 239 244 245 248 239 218 207 203 200 192 187 188 192 207 183 169 162 176 186 200 217 203 169 179 180 173 171 154 177 210 202 194 141 207 222 229 237 241 245 237 225 222 200 210 217 222 215 206 207 210 206 200
245 192 163 191 227 227 214 203 195 183 179 182 185 181 163 149 135 163 156 166 144 179 183 203 192 135 187 182 173 203 176 189 220 182 196 191 221 230 237 240 243 240 233 228 234 245 249 244 231 218 214 212 209 205
101 92 125 195 191 187 199 190 182 175 178 179 180 142 171 147 134 151 150 123 166 196 168 157 172 196 164 169 169 177 202 181 235 147 194 200 231 230 229 232 239 237 230 229 233 234 236 241 245 237 226 221 215 209
88 66 47 223 190 177 172 174 179 170 169 167 185 191 158 126 134 163 152 144 155 155 154 148 132 158 145 190 92 209 222 203 102 185 222 226 235 238 238 242 245 243 238 239 235 232 234 239 243 238 231 227 218 209
62 33 36 117 139 153 167 175 169 171 172 167 174 171 178 147 160 168 150 155 166 155 161 163 138 165 156 163 170 230 277 150 235 206 222 247 276 284 262 252 250 245 239 236 237 236 233 233 236 236 231 226 215 210
187 360 5 126 126 160 158 168 170 168 155 148 173 174 195 98 86 152 148 140 159 169 160 129 117 139 159 175 184 116 170 246 236 242 280 295 314 295 284 261 253 250 252 243 236 235 231 230 230 229 225 216 213 211
185 17 58 96 148 157 179 180 156 114 86 74 38 112 20 336 48 59 68 101 132 155 155 137 130 146 215 168 163 195 170 210 241 214 294 325 332 330 301 277 268 267 257 252 248 242 236 228 225 223 216 211 207 206
58 49 39 87 101 124 135 149 113 74 86 59 36 45 47 56 50 70 54 96 128 156 169 135 160 199 122 151 210 193 196 225 170 256 306 314 321 325 320 312 302 286 277 268 257 251 239 228 221 213 208 202 199 200
53 45 46 96 117 109 98 63 71 58 61 45 94 29 64 46 53 60 40 62 127 183 169 186 139 173 184 173 218 199 3 296 295 303 318 328 326 323 319 316 303 292 281 275 256 237 227 219 214 208 202 197 193 192
55 37 40 71 125 86 78 56 51 88 57 60 64 54 70 69 50 41 25 128 137 122 334 215 193 196 202 42 347 337 343 342 310 308 316 314 313 316 321 321 316 301 280 256 235 225 215 209 207 201 195 191 192 191
51 32 19 35 69 76 78 56 60 88 96 94 68 51 65 54 39 36 39 62 96 59 37 23 36 35 336 321 314 306 313 313 313 319 324 337 336 328 321 309 300 287 255 231 214 201 198 194 191 192 191 190 190 190
31 29 18 26 65 61 80 63 63 72 91 90 70 53 54 46 41 30 16 23 56 38 48 16 353 346 338 333 329 323 318 309 306 301 302 312 323 322 324 315 292 247 209 196 185 181 180 187 186 183 183 182 180 183
168 65 51 47 70 70 70 49 77 76 68 81 51 45 42 34 20 9 1 47 53 22 0 342 344 344 347 344 340 334 317 302 303 305 304 304 311 314 310 281 229 204 189 176 171 174 169 175 177 174 175 177 176 178
135 110 60 38 82 51 44 42 65 34 78 18 85 88 46 46 10 4 69 54 47 1 352 344 346 337 343 355 352 350 337 313 311 311 311 316 308 266 250 194 178 184 177 162 163 166 166 165 166 170 172 174 176 178
92 55 31 37 29 36 18 31 38 48 56 27 27 86 21 331 348 63 72 12 357 359 4 5 2 11 7 8 16 25 32 40 54 51 75 105 128 144 149 153 155 156 160 155 153 160 160 160 164 169 173 174 175 179
74 12 21 5 18 26 27 14 360 36 52 341 29 32 8 339 57 49 26 352 351 359 5 13 21 32 33 36 36 33 34 46 69 93 118 122 130 129 135 142 144 148 149 158 160 161 159 160 163 168 173 175 180 184
65 13 36 340 360 46 338 44 26 10 5 34 15 315 332 318 63 39 355 333 335 339 348 1 12 29 30 36 37 41 43 65 86 108 112 108 107 117 127 135 138 138 146 153 156 159 159 160 164 171 179 186 194 208
51 343 15 26 5 20 59 52 56 60 47 26 335 340 338 67 36 1 327 344 335 326 334 351 2 7 13 26 35 36 40 51 73 91 92 93 108 120 121 121 119 139 146 153 156 158 163 170 179 191 201 211 222 234
71 28 47 341 21 27 112 52 40 25 310 346 308 24 69 56 323 328 320 331 338 339 343 350 357 4 11 23 34 37 51 70 83 85 84 89 102 101 114 124 115 150 155 161 166 174 183 195 207 219 232 244 254 260
34 353 353 8 32 47 47 83 268 4 338 335 106 332 293 343 342 340 346 350 356 1 1 2 4 7 9 14 16 24 37 46 48 56 53 57 85 105 127 136 145 147 164 181 192 204 217 228 238 247 258 265 268 273
0 2 14 35 66 24 11 6 350 347 6 357 320 356 20 44 34 32 29 27 26 21 18 18 17 15 18 20 28 29 41 75 68 77 73 84 194 196 201 204 207 210 215 224 235 244 255 262 264 269 273 277 279 280
353 350 12 43 96 37 0 1 7 18 20 20 27 346 325 326 43 36 30 26 27 28 27 24 23 21 21 26 20 19 19 5 351 319 297 301 266 258 251 247 245 246 250 256 265 274 279 282 282 283 285 288 290 290
360 27 17 36 5 358 8 2 17 24 21 17 10 7 357 6 55 28 19 21 19 15 14 12 10 10 13 16 15 4 349 334 311 283 272 270 273 278 282 283 281 279 279 281 283 282 282 283 283 286 289 292 294 294
347 2 12 359 3 14 357 354 18 18 23 22 20 16 22 32 51 14 7 6 8 8 5 359 350 341 337 334 328 322 320 314 307 301 298 292 289 287 285 283 283 282 282 282 283 286 288 291 293 295 294 295 296 296